Regional Weather Roundup
Issued by NWS

Home | Current Version | Previous Version | Text Only | Print | Product List | Glossary Off
Versions: 1 2 3 4 5 6 7 8 9 10 11 12 13 14 15 16 17 18 19 20 21 22 23 24 25 26 27

000
ASUS45 KCYS 300310
RWRWY

WYOMING REGIONAL WEATHER ROUNDUP
NATIONAL WEATHER SERVICE CHEYENNE WY
900 PM MDT SUN MAY 29 2016

NOTE:  "FAIR" INDICATES FEW OR NO CLOUDS BELOW 12,000 FEET
WITH NO SIGNIFICANT WEATHER AND/OR OBSTRUCTIONS TO VISIBILITY.

WYZ001-300400-
YELLOWSTONE NATIONAL PARK

CITY           SKY/WX    TMP DP  RH WIND       PRES   REMARKS
LK YELLOWSTONE   N/A     47  34  60 CALM      30.18R
W YELLOWSTONE  NOT AVBL

$$
WYZ002>013-054>058-071-098>099-300400-
NORTHERN WYOMING

CITY           SKY/WX    TMP DP  RH WIND       PRES   REMARKS
JACKSON        MOCLDY    55  37  50 SW7       30.11
CODY           FAIR      66  32  28 SW6       29.98R
GREYBULL       FAIR      72  34  24 S5        29.91S
WORLAND        FAIR      64  37  36 E5        29.92S
SHERIDAN       FAIR      64  48  56 S3        29.95R
BUFFALO        FAIR      58  45  62 W7        30.00R
GILLETTE       FAIR      51  46  83 S5        29.98S
HULETT         FAIR      61  46  59 SE9       30.02R
NEWCASTLE      FAIR      70  30  23 SW6       30.00R

$$
WYZ014>020-022>026-101>103-300400-
CENTRAL WYOMING

CITY           SKY/WX    TMP DP  RH WIND       PRES   REMARKS
BIG PINEY      LGT RAIN  50  44  80 NE10      30.20R
PINEDALE       FAIR      46  43  87 E3        30.21R
DUBOIS         FAIR      52  32  46 SW21      30.12S
LANDER         CLOUDY    61  37  41 W17G24    30.06R
RIVERTON       MOCLDY    64  35  34 W22G31    30.06R
CASPER         FAIR      55  40  56 NE7       30.01F
DOUGLAS          N/A    N/A N/A N/A MISG      30.03S

$$
WYZ021-027>030-104>119-300400-
SOUTHERN WYOMING

CITY           SKY/WX    TMP DP  RH WIND       PRES   REMARKS
EVANSTON       LGT RAIN  53  38  56 S12G23    30.17R
KEMMERER         N/A     54  37  54 SE7       30.16F
FORT BRIDGER   CLEAR     54  39  58 SW13      30.18S
ROCK SPRINGS   FAIR      57  36  45 SW9       30.15R
DIXON          FAIR      52  42  69 E12       30.19F
RAWLINS        FAIR      57  34  41 SW14      30.14S
SARATOGA       FAIR      50  39  66 SE17      30.19S
LARAMIE        FAIR      48  41  76 S9        30.19F
CHEYENNE       MOCLDY    56  42  59 W9        30.14F
TORRINGTON     FAIR      62  47  57 SE7       30.02R
PINE BLUFFS    FAIR      52  46  82 W6        30.10F

$$




USA.gov is the U.S. government's official web portal to all federal, state and local government web resources and services.